Malaga, Spain

4:18 AM CEST on July 23, 2017 (GMT +0200)
Malaga

Weather History for LEMG - November, 2013

Change the Weather History Date:

Thursday, November 7, 2013

  Actual Average Record
Temperature  
Mean Temperature 67 °F -  
Max Temperature 81 °F 63 °F 81 °F (2013)
Min Temperature 53 °F 49 °F 48 °F (2000)
Cooling Degree Days 2    
Growing Degree Days 17 (Base 50)    
Moisture  
Dew Point 53 °F    
Average Humidity 64    
Maximum Humidity 88    
Minimum Humidity 31    
Precipitation  
Precipitation 0.00 in 0.15 in - ()
Sea Level Pressure  
Sea Level Pressure 30.08 in    
Wind  
Wind Speed 6 mph ()    
Max Wind Speed 20 mph    
Max Gust Speed -    
Visibility 8.1 miles    
Events      
Averages and records for this station are not official NWS values.
T = Trace of Precipitation, MM = Missing Value Source: Averaged Metar Reports

Daily Weather History Graph

Daily Weather History Graph

Search for Another Location

Airport or City:

Trip Planner

Search our weather history database for the weather conditions in past years. The results will help you decide how hot, cold, wet, or windy it might be!

Date:

Astronomy

Nov. 07, 2013 Rise Set
Actual Time 7:47 AM CET 6:15 PM CET
Civil Twilight 7:20 AM CET 6:42 PM CET
Nautical Twilight 6:49 AM CET 7:13 PM CET
Astronomical Twilight 6:19 AM CET 7:43 PM CET
Moon 11:42 AM CET (11/7) 10:11 PM CET (11/7)
Length of Visible Light 11h 21m
Length of Day
10h 27m
Waxing Crescent, 20% of the Moon is Illuminated
Nov 7
Waxing Crescent
Nov 10
First Quarter
Nov 17
Full
Nov 25
Last Quarter
Dec 3
New

Hourly Weather History & Observations

Time (CET) Temp. Dew Point Humidity Pressure Visibility Wind Dir Wind Speed Gust Speed Precip Events Conditions
12:00 AM 59.0 °F 53.6 °F 82% 30.09 in - WNW 4.6 mph - N/A   Clear
12:30 AM 57.2 °F 51.8 °F 82% 30.09 in - Variable 2.3 mph - N/A   Clear
1:00 AM 60 °F 52 °F 66% 30.12 in 12 mi WSW 6.9 mph - -  
1:00 AM 59.0 °F 51.8 °F 77% 30.09 in - West 4.6 mph - N/A   Clear
1:30 AM 59.0 °F 51.8 °F 77% 30.09 in - Variable 1.2 mph - N/A   Clear
2:00 AM 57.2 °F 50.0 °F 77% 30.09 in - West 3.5 mph - N/A   Clear
2:30 AM 57.2 °F 50.0 °F 77% 30.09 in - WNW 2.3 mph - N/A   Clear
3:00 AM 55.4 °F 50.0 °F 82% 30.09 in - WNW 4.6 mph - N/A   Clear
3:30 AM 57.2 °F 50.0 °F 77% 30.09 in - WNW 9.2 mph - N/A   Clear
4:00 AM 55.4 °F 50.0 °F 82% 30.09 in - WNW 8.1 mph - N/A   Clear
4:30 AM 55.4 °F 50.0 °F 82% 30.06 in - WNW 4.6 mph - N/A   Clear
5:00 AM 55.4 °F 50.0 °F 82% 30.06 in - WNW 5.8 mph - N/A   Clear
5:30 AM 55.4 °F 50.0 °F 82% 30.09 in - WNW 8.1 mph - N/A   Clear
6:00 AM 55.4 °F 50.0 °F 82% 30.06 in - NW 5.8 mph - N/A   Clear
6:30 AM 55.4 °F 51.8 °F 88% 30.06 in - NW 8.1 mph - N/A   Clear
7:00 AM 58 °F 52 °F 73% 30.09 in 12 mi West 4.6 mph - -  
7:00 AM 57.2 °F 51.8 °F 82% 30.06 in - WNW 5.8 mph - N/A   Clear
7:30 AM 57.2 °F 51.8 °F 82% 30.09 in - Variable 2.3 mph - N/A   Clear
8:00 AM 53.6 °F 50.0 °F 88% 30.09 in - WNW 8.1 mph - N/A   Clear
8:30 AM 57.2 °F 51.8 °F 82% 30.09 in - WNW 4.6 mph - N/A   Clear
9:00 AM 60.8 °F 53.6 °F 77% 30.09 in - West 4.6 mph - N/A   Clear
9:30 AM 62.6 °F 55.4 °F 77% 30.09 in - WNW 5.8 mph - N/A   Clear
10:00 AM 66.2 °F 55.4 °F 68% 30.09 in - West 3.5 mph - N/A   Clear
10:30 AM 68.0 °F 55.4 °F 64% 30.12 in - WNW 3.5 mph - N/A   Clear
11:00 AM 69.8 °F 55.4 °F 60% 30.12 in - West 8.1 mph - N/A   Clear
11:30 AM 71.6 °F 55.4 °F 57% 30.12 in 6.2 mi West 12.7 mph - N/A   Partly Cloudy
12:00 PM 73.4 °F 55.4 °F 53% 30.09 in 6.2 mi West 6.9 mph - N/A   Partly Cloudy
12:30 PM 75.2 °F 53.6 °F 47% 30.09 in 6.2 mi West 8.1 mph - N/A   Partly Cloudy
1:00 PM 78 °F 53 °F 31% 30.09 in 9 mi West 9.2 mph - -   Scattered Clouds
1:00 PM 75.2 °F 53.6 °F 47% 30.09 in 6.2 mi West 8.1 mph - N/A   Partly Cloudy
1:30 PM 77.0 °F 55.4 °F 47% 30.06 in 6.2 mi Variable 3.5 mph - N/A   Partly Cloudy
2:00 PM 77.0 °F 53.6 °F 44% 30.06 in 6.2 mi SSE 8.1 mph - N/A   Partly Cloudy
2:30 PM 77.0 °F 53.6 °F 44% 30.06 in 6.2 mi South 6.9 mph - N/A   Partly Cloudy
3:00 PM 77.0 °F 55.4 °F 47% 30.04 in - South 5.8 mph - N/A   Clear
3:30 PM 77.0 °F 53.6 °F 44% 30.04 in - South 5.8 mph - N/A   Clear
4:00 PM 77.0 °F 53.6 °F 44% 30.04 in - SSE 5.8 mph - N/A   Clear
4:30 PM 77.0 °F 55.4 °F 47% 30.04 in - SSE 3.5 mph - N/A   Clear
5:00 PM 77.0 °F 55.4 °F 47% 30.04 in - Variable 1.2 mph - N/A   Clear
5:30 PM 75.2 °F 55.4 °F 50% 30.04 in - North 3.5 mph - N/A   Clear
6:00 PM 73.4 °F 55.4 °F 53% 30.04 in - North 4.6 mph - N/A   Clear
6:30 PM 73.4 °F 53.6 °F 50% 30.06 in - WNW 10.4 mph - N/A   Clear
7:00 PM 73 °F 52 °F 37% 30.08 in 19 mi WNW 11.5 mph - -  
7:00 PM 71.6 °F 51.8 °F 50% 30.06 in - WNW 10.4 mph - N/A   Clear
7:30 PM 69.8 °F 51.8 °F 53% 30.06 in - NW 8.1 mph - N/A   Clear
8:00 PM 69.8 °F 53.6 °F 56% 30.09 in - WNW 11.5 mph - N/A   Clear
8:30 PM 68.0 °F 53.6 °F 60% 30.09 in - WNW 11.5 mph - N/A   Clear
9:00 PM 68.0 °F 53.6 °F 60% 30.09 in - WNW 13.8 mph - N/A   Clear
9:30 PM 66.2 °F 53.6 °F 64% 30.09 in - WNW 16.1 mph - N/A   Clear
10:00 PM 66.2 °F 53.6 °F 64% 30.12 in - West 18.4 mph - N/A   Clear
10:30 PM 66.2 °F 51.8 °F 60% 30.12 in 6.2 mi West 17.3 mph - N/A   Partly Cloudy
11:00 PM 66.2 °F 51.8 °F 60% 30.12 in 6.2 mi WNW 17.3 mph - N/A   Partly Cloudy
11:30 PM 66.2 °F 51.8 °F 60% 30.09 in 6.2 mi WNW 19.6 mph - N/A   Partly Cloudy